Location: Kalberh�ni
(46.4610°N, 7.2453°E)
Time: 05:12:48
(UTC+00:00)

Cosmos 1802 Rocket - Pass Details

Date: 23 October 2021
Orbit: 955 x 1010 km, 82.9° (Epoch: 05 December)

Event Time Altitude Azimuth Distance (km) Brightness Sun altitude
Exits shadow 18:13:12 15° 43° (NE) 2,368 5.7 -18.4°
Drops below altitude 10° 18:14:28 10° 34° (NNE) 2,699 6.0 -18.6°
Sets 18:17:29 0° 20° (NNE) 3,655 6.8 -19.1°
